Date String (YYYY-MM-DD hh:mm:ss) UTC,Instrument flags,absolute air pressure of the measurement (hPa),sample flow rate (lpm),inlet stack bypass flow (lpm),air temperature of the measurement (°C),ambient temperature measured by the external sensor (°C),aerosol sample conditioner tube jacket temperature (°C),OPC LED temperature (°C),internal box temperature (°C),relative humidity of the measurement (%),span deviation,mass concentration of particles derived from Lorenz-Mie calculation of OPC scattering (μg/m³),mass concentration of particles derived from Lorenz-Mie calculation of OPC scattering (μg/m³),mass concentration of particles derived from Lorenz-Mie calculation of OPC scattering (μg/m³)
DateTimeUTC,F1_M11,P_M11,Q1_M11,Q2_M11,T1_M11,T2_M11,T3_M11,T4_M11,T5_M11,U1_M11,ZSPAN_M11,X2_M11,X0_M11,X1_M11
2023-09-12 07:00:00,SystemResetWarning,0835.9,5.00,000.00,029.1,027.6,000.0,037.4,030.7,25.3,-001.4,0005.79,0009.66,0005.44
2023-09-12 07:01:00,SystemResetWarning,0835.9,5.00,000.00,029.1,027.6,000.0,037.4,030.7,25.3,-000.9,0005.77,0010.03,0005.41
2023-09-12 07:02:00,SystemResetWarning,0835.9,5.00,000.00,029.1,027.6,000.0,037.4,030.6,25.2,-000.3,0005.71,0009.94,0005.36
2023-09-12 07:03:00,SystemResetWarning,0835.8,5.00,000.00,029.1,027.6,000.0,037.4,030.7,25.2,-000.4,0005.68,0009.93,0005.31
2023-09-12 07:04:00,SystemResetWarning,0835.9,5.00,000.00,029.1,027.6,000.0,037.4,030.7,25.2,-000.4,0005.64,0009.88,0005.27
2023-09-12 07:05:00,SystemResetWarning,0835.9,5.00,000.00,029.1,027.6,000.0,037.4,030.7,25.3,-000.1,0005.65,0009.90,0005.27
2023-09-12 07:06:00,SystemResetWarning,0835.9,5.00,000.00,029.1,027.6,000.0,037.4,030.7,25.3,0000.1,0005.62,0009.83,0005.26
2023-09-12 07:07:00,SystemResetWarning,0835.9,5.01,000.00,029.1,027.6,000.0,037.5,030.7,25.3,0000.5,0005.64,0010.10,0005.27
2023-09-12 07:08:00,SystemResetWarning,0835.9,5.00,000.00,029.1,027.6,000.0,037.5,030.7,25.3,0000.8,0005.63,0009.74,0005.27
2023-09-12 07:09:00,SystemResetWarning,0835.9,5.00,000.00,029.1,027.6,000.0,037.5,030.7,25.2,0000.6,0005.63,0009.60,0005.27
2023-09-12 07:10:00,SystemResetWarning,0835.9,5.00,000.00,029.1,026.1,000.0,037.4,030.4,25.1,0000.7,0005.63,0009.66,0005.24
2023-09-12 07:11:00,SystemResetWarning,0835.9,5.00,000.00,029.0,024.6,000.0,037.3,030.2,25.2,0000.9,0005.60,0009.50,0005.22
2023-09-12 07:12:00,SystemResetWarning,0835.8,5.01,000.00,028.9,024.3,000.0,037.2,030.0,25.4,0001.0,0005.58,0008.86,0005.19
2023-09-12 07:13:00,SystemResetWarning,0835.8,5.01,000.00,028.7,024.5,000.0,037.2,029.8,25.6,0000.6,0005.56,0008.84,0005.18
2023-09-12 07:14:00,SystemResetWarning,0835.8,5.00,000.00,028.6,024.9,000.0,037.2,029.7,25.7,-000.2,0005.53,0008.79,0005.16
2023-09-12 07:15:00,SystemResetWarning,0835.8,5.00,000.00,028.5,025.2,000.0,037.1,029.7,25.8,0000.2,0005.48,0008.71,0005.14
2023-09-12 07:16:00,SystemResetWarning,0835.8,5.00,000.00,028.5,025.6,000.0,037.1,029.7,25.8,0001.1,0005.46,0008.67,0005.12
2023-09-12 07:17:00,SystemResetWarning,0835.8,5.00,000.00,028.5,025.8,000.0,037.1,029.7,25.9,0000.9,0005.46,0008.62,0005.12
2023-09-12 07:18:00,SystemResetWarning,0835.8,5.00,000.00,028.4,026.1,000.0,037.0,029.8,26.0,0001.5,0005.41,0008.37,0005.10
2023-09-12 07:19:00,SystemResetWarning,0835.8,4.99,000.00,028.4,026.3,000.0,037.0,029.8,26.1,0000.9,0005.37,0008.21,0005.07
2023-09-12 07:20:00,SystemResetWarning,0835.8,5.00,000.00,028.4,026.4,000.0,037.0,029.9,26.3,0001.4,0005.39,0008.31,0005.06
2023-09-12 07:21:00,SystemResetWarning,0835.8,5.00,000.00,028.4,026.6,000.0,037.0,029.9,26.2,0001.5,0005.38,0008.24,0005.05
2023-09-12 07:22:00,SystemResetWarning,0835.8,5.00,000.00,028.4,026.7,000.0,037.0,029.9,26.0,0001.5,0005.36,0008.17,0005.03
2023-09-12 07:23:00,SystemResetWarning,0835.8,5.00,000.00,028.4,026.7,000.0,037.0,029.9,25.8,0001.3,0005.34,0008.21,0005.02
2023-09-12 07:24:00,SystemResetWarning,0835.8,5.00,000.00,028.5,026.8,000.0,036.9,030.0,25.8,0001.4,0005.35,0008.42,0005.02
2023-09-12 07:25:00,SystemResetWarning,0835.8,4.99,000.00,028.5,026.9,000.0,036.9,030.0,25.9,0001.9,0005.38,0008.64,0005.02
2023-09-12 07:26:00,SystemResetWarning,0835.8,4.99,000.00,028.5,026.9,000.0,036.9,030.0,25.9,0001.9,0005.40,0008.70,0005.02
2023-09-12 07:27:00,SystemResetWarning,0835.8,5.00,000.00,028.5,026.9,000.0,036.9,030.0,25.8,0000.9,0005.39,0008.67,0005.03
2023-09-12 07:28:00,SystemResetWarning,0835.8,5.00,000.00,028.5,027.0,000.0,036.9,030.0,25.9,0001.1,0005.39,0008.74,0005.02
2023-09-12 07:29:00,SystemResetWarning,0835.8,5.01,000.00,028.5,027.0,000.0,036.9,030.1,25.9,0000.7,0005.38,0008.72,0005.02
2023-09-12 07:30:00,SystemResetWarning,0835.8,5.01,000.00,028.5,027.0,000.0,036.9,030.1,25.9,0001.0,0005.38,0008.72,0005.01
2023-09-12 07:31:00,SystemResetWarning,0835.8,5.00,000.00,028.5,027.1,000.0,036.9,030.1,25.9,0001.1,0005.36,0008.62,0005.01
2023-09-12 07:32:00,SystemResetWarning,0835.8,5.00,000.00,028.6,027.1,000.0,036.9,030.1,25.8,0001.3,0005.34,0008.59,0005.01
2023-09-12 07:33:00,SystemResetWarning,0835.8,5.00,000.00,028.6,027.1,000.0,036.9,030.1,25.8,0001.3,0005.35,0008.60,0005.03
2023-09-12 07:34:00,SystemResetWarning,0835.8,4.99,000.00,028.6,027.1,000.0,036.9,030.2,25.7,0001.5,0005.36,0008.57,0005.03
2023-09-12 07:35:00,SystemResetWarning,0835.8,4.99,000.00,028.6,027.1,000.0,036.9,030.2,25.6,0001.5,0005.36,0008.40,0005.04
2023-09-12 07:36:00,SystemResetWarning,0835.8,5.00,000.00,028.6,027.2,000.0,036.9,030.2,25.6,0001.3,0005.35,0008.17,0005.05
2023-09-12 07:37:00,SystemResetWarning,0835.8,5.00,000.00,028.6,027.2,000.0,036.9,030.2,25.6,0000.9,0005.33,0008.11,0005.05
2023-09-12 07:38:00,SystemResetWarning,0835.8,5.00,000.00,028.6,027.2,000.0,037.0,030.2,25.6,0001.1,0005.34,0008.13,0005.05
2023-09-12 07:39:00,SystemResetWarning,0835.8,4.99,000.00,028.6,027.2,000.0,037.0,030.2,25.6,0001.0,0005.34,0008.11,0005.05
2023-09-12 07:40:00,SystemResetWarning,0835.8,5.01,000.00,028.7,027.2,000.0,037.0,030.2,25.5,0001.2,0005.34,0008.06,0005.06
2023-09-12 07:41:00,SystemResetWarning,0835.8,5.00,000.00,028.7,027.2,000.0,037.0,030.2,25.4,0001.2,0005.36,0008.10,0005.08
2023-09-12 07:42:00,SystemResetWarning,0835.7,5.00,000.00,028.7,027.2,000.0,037.0,030.3,25.4,0001.0,0005.35,0008.13,0005.08
2023-09-12 07:43:00,SystemResetWarning,0835.7,5.00,000.00,028.7,027.2,000.0,037.0,030.3,25.4,0000.7,0005.33,0008.09,0005.08
2023-09-12 07:44:00,SystemResetWarning,0835.6,5.00,000.00,028.7,027.2,000.0,037.0,030.3,25.3,0000.6,0005.33,0008.07,0005.08
2023-09-12 07:45:00,SystemResetWarning,0835.6,5.00,000.00,028.7,027.2,000.0,037.0,030.3,25.3,0000.2,0005.35,0008.09,0005.08
2023-09-12 07:46:00,SystemResetWarning,0835.7,5.00,000.00,028.7,027.3,000.0,037.0,030.3,25.3,0000.2,0005.34,0008.07,0005.06
2023-09-12 07:47:00,SystemResetWarning,0835.6,5.00,000.00,028.7,027.3,000.0,037.0,030.3,25.3,-000.0,0005.33,0008.04,0005.06
2023-09-12 07:48:00,SystemResetWarning,0835.6,5.00,000.00,028.7,027.3,000.0,037.0,030.3,25.2,0000.1,0005.33,0008.07,0005.06
2023-09-12 07:49:00,SystemResetWarning,0835.6,5.01,000.00,028.7,027.3,000.0,037.0,030.3,25.2,-000.0,0005.33,0008.07,0005.07
2023-09-12 07:50:00,SystemResetWarning,0835.6,5.00,000.00,028.7,027.3,000.0,037.1,030.3,25.1,-000.1,0005.35,0008.11,0005.06
2023-09-12 07:51:00,SystemResetWarning,0835.6,4.99,000.00,028.8,027.3,000.0,037.1,030.3,25.1,0000.1,0005.33,0008.05,0005.05
2023-09-12 07:52:00,SystemResetWarning,0835.6,4.99,000.00,028.8,027.3,000.0,037.1,030.4,25.1,0000.4,0005.34,0008.19,0005.03
2023-09-12 07:53:00,SystemResetWarning,0835.6,5.00,000.00,028.8,027.3,000.0,037.1,030.4,25.1,0000.3,0005.33,0008.81,0005.03
2023-09-12 07:54:00,SystemResetWarning,0835.5,5.01,000.00,028.8,027.3,000.0,037.1,030.4,25.1,0000.2,0005.34,0008.88,0005.02
2023-09-12 07:55:00,SystemResetWarning,0835.7,5.00,000.00,028.8,027.3,000.0,037.1,030.3,25.2,0000.5,0005.34,0009.28,0005.01
2023-09-12 07:56:00,SystemResetWarning,0835.7,4.99,000.00,028.8,027.3,000.0,037.1,030.3,25.1,0000.5,0005.32,0009.25,0005.00
2023-09-12 07:59:00,SystemResetWarning,0835.5,5.00,000.00,028.8,027.3,000.0,037.1,030.4,25.0,0000.9,0005.24,0009.83,0004.98
